www.pogodaiklimat.ru

Погода и климат >> Архив погоды >> Япония >> Аджиро


ПОГОДА в Аджиро

  • Прогноз погоды в Аджиро
  • Монитор погоды в Аджиро

АРХИВ ПОГОДЫ в Аджиро

Время (UTC), дата Ветер
(напр.,м/с)
 
Видим.   Явления Облачность Т
(С)
Тd
(С)
f
(%)
Тe
(С)
Тes
(С)
Комфортность P
(гПа)
Po
(гПа)
Тmin
(С)
Tmax
(С)
R
(мм)
R24
(мм)
S
(см)
06 19.08 СВ 1 9000 м дымка {дождь} н/о +29.8 +25.6 78 +44 +44 опасность
перегрева
1010.6 1002.9 0.0
09 19.08 ЮВ 2 5000 м дымка н/о +27.4 +25.8 91 +41 +41 опасность
перегрева
1010.9 1003.1
10 19.08 ЮВ 2 4700 м дымка н/о +26.7 +25.3 92 +39 +39 очень
душно
1011.6 1003.8
11 19.08 В 1 5000 м дымка н/о +26.6 +25.2 92 +38 +38 очень
душно
1011.9 1004.1
12 19.08 ЮВ 2 5000 м дымка н/о +26.3 +25.1 93 +38 +38 очень
душно
1012.2 1004.4 +30.8 0.0
13 19.08 ЮВ 1 5000 м дымка н/о +26.4 +25.2 93 +38 +38 очень
душно
1012.4 1004.6
14 19.08 В 2 5000 м в посл. час дождь н/о +26.2 +25.0 93 +37 +37 очень
душно
1011.4 1003.6
15 19.08 Ю 1 4700 м слаб. дождь н/о +26.0 +25.1 95 +37 +37 очень
душно
1011.6 1003.8
16 19.08 В 1 1100 м дождь н/о +25.3 +25.1 99 +36 +36 очень
душно
1011.9 1004.1
17 19.08 Ю 1 1300 м в посл. час дождь н/о +25.4 +25.4 100 +37 +37 очень
душно
1011.5 1003.7
18 19.08 Ю 2 3000 м дымка {дождь} н/о +25.1 +25.1 100 +36 +36 очень
душно
1011.7 1003.9 20
19 19.08 Ю 1 3100 м дымка н/о +25.2 +25.0 99 +36 +36 очень
душно
1011.5 1003.7
20 19.08 Ю 1 4000 м дымка н/о +25.2 +24.9 98 +36 +36 очень
душно
1011.5 1003.7
21 19.08 Ю 1 3200 м дымка н/о +25.3 +25.1 99 +36 +36 очень
душно
1011.6 1003.8
22 19.08 В 1 4600 м дымка н/о +26.5 +26.0 97 +40 +40 очень
душно
1011.3 1003.5
23 19.08 В 1 6000 м дымка н/о +27.1 +25.1 89 +39 +39 очень
душно
1011.3 1003.5
00 20.08 СВ 2 6000 м дымка н/о +27.5 +25.5 89 +40 +40 очень
душно
1011.5 1003.7 +25.0 20
01 20.08 ЮВ 2 5000 м слаб. дождь н/о +26.9 +25.5 92 +39 +39 очень
душно
1011.3 1003.5
02 20.08 ЮВ 2 7000 м в посл. час дождь н/о +28.8 +25.8 84 +43 +43 опасность
перегрева
1010.6 1002.9
03 20.08 ЮВ 3 8000 м дымка {дождь} н/о +28.4 +25.6 85 +42 +42 опасность
перегрева
1009.8 1002.1
04 20.08 ЮВ 4 9000 м дымка н/о +28.6 +26.2 87 +43 +43 опасность
перегрева
1009.3 1001.6
05 20.08 ЮВ 2 7000 м дымка н/о +29.4 +26.4 84 +45 +45 опасность
перегрева
1008.7 1001.0
06 20.08 Ю 3 6000 м дымка {дождь} н/о +29.2 +26.6 86 +45 +45 опасность
перегрева
1008.2 1000.5 0.0
07 20.08 С 2 9000 м дымка н/о +29.6 +25.4 78 +43 +43 опасность
перегрева
1008.7 1001.0
08 20.08 В 1 10 км н/о +29.1 +25.5 81 +43 +43 опасность
перегрева
1008.1 1000.4
09 20.08 Ю 1 13 км н/о +28.5 +24.9 81 +41 +41 опасность
перегрева
1008.3 1000.6
10 20.08 З 2 17 км н/о +27.6 +24.9 85 +39 +39 очень
душно
1008.6 1000.9
11 20.08 Ю 1 19 км н/о +27.7 +24.6 83 +39 +39 очень
душно
1009.4 1001.7
12 20.08 ЮЗ 2 18 км н/о +27.6 +24.9 85 +39 +39 очень
душно
1010.0 1002.3 +30.5 0.0
13 20.08 С 1 10 км н/о +27.3 +25.7 91 +40 +40 очень
душно
1009.9 1002.1
14 20.08 С 3 10 км н/о +26.7 +25.1 91 +38 +38 очень
душно
1009.5 1001.7
15 20.08 С 2 12 км н/о +26.7 +24.9 90 +38 +38 очень
душно
1009.5 1001.7
16 20.08 ЮВ 1 11 км н/о +26.4 +25.0 92 +38 +38 очень
душно
1009.2 1001.4
17 20.08 Ю 1 16 км н/о +26.0 +24.4 91 +36 +36 очень
душно
1009.1 1001.3
18 20.08 Ю 1 20 км н/о +25.8 +23.9 89 +35 +35 очень
душно
1009.1 1001.3
20 20.08 СВ 1 16 км н/о +25.5 +24.1 92 +35 +35 очень
душно
1009.5 1001.7
22 20.08 С 1 17 км н/о +26.6 +23.9 85 +37 +37 очень
душно
1010.2 1002.4
23 20.08 В 2 15 км н/о +26.8 +25.0 90 +39 +39 очень
душно
1010.5 1002.7
00 21.08 В 2 14 км н/о +26.9 +24.4 86 +38 +38 очень
душно
1010.7 1002.9 +25.3
01 21.08 В 3 13 км н/о +27.7 +24.1 81 +39 +39 очень
душно
1010.5 1002.8
02 21.08 СВ 2 15 км н/о +28.0 +24.2 80 +39 +39 очень
душно
1010.4 1002.7
03 21.08 СВ 2 13 км н/о +28.4 +24.4 79 +40 +40 очень
душно
1009.9 1002.2
05 21.08 ЮВ 3 15 км н/о +28.6 +25.4 83 +42 +42 опасность
перегрева
1009.3 1001.6
06 21.08 ЮВ 3 19 км н/о +27.9 +24.5 82 +39 +39 очень
душно
1008.8 1001.1
07 21.08 Ю 2 12 км н/о +27.7 +25.0 85 +40 +40 очень
душно
1008.9 1001.2
09 21.08 Ю 3 12 км н/о +27.0 +25.2 90 +39 +39 очень
душно
1009.4 1001.6
10 21.08 Ю 2 10 км н/о +26.8 +25.4 92 +39 +39 очень
душно
1009.5 1001.7
11 21.08 Ю 2 8000 м дымка н/о +26.7 +25.3 92 +39 +39 очень
душно
1009.7 1001.9
12 21.08 Ю 1 6000 м дымка н/о +25.9 +25.2 96 +37 +37 очень
душно
1009.9 1002.1 +31.0
13 21.08 Ю 2 9000 м дымка н/о +26.5 +24.9 91 +38 +38 очень
душно
1009.6 1001.8
15 21.08 ЮВ 1 12 км слаб. дождь н/о +26.7 +24.9 90 +38 +38 очень
душно
1008.3 1000.5
16 21.08 ЮВ 2 16 км в посл. час дождь н/о +27.3 +24.6 85 +39 +39 очень
душно
1007.8 1000.1
17 21.08 Ю 2 14 км н/о +26.7 +25.1 91 +38 +38 очень
душно
1007.5 999.8
18 21.08 В 1 17 км в посл. час дождь н/о +26.9 +24.6 87 +38 +38 очень
душно
1007.4 999.7 0.0
19 21.08 СЗ 1 5000 м слаб. дождь н/о +26.1 +25.4 96 +38 +38 очень
душно
1007.6 999.8
20 21.08 Ю 2 11 км в посл. час дождь н/о +25.1 +24.2 95 +35 +35 очень
душно
1008.3 1000.5
22 21.08 С 5 18 км н/о +24.4 +23.4 94 +33 +33 очень
душно
1010.1 1002.3
23 21.08 С 2 19 км н/о +24.6 +23.2 92 +33 +33 очень
душно
1010.8 1003.0
00 22.08 С 3 18 км {дождь} н/о +25.9 +24.0 89 +36 +36 очень
душно
1011.0 1003.2 +24.3 0.0
01 22.08 С 2 19 км н/о +25.9 +24.1 90 +36 +36 очень
душно
1010.8 1003.0
02 22.08 С 3 19 км н/о +26.5 +24.0 86 +37 +37 очень
душно
1010.5 1002.7
04 22.08 С 2 13 км н/о +26.6 +23.5 83 +36 +36 очень
душно
1009.9 1002.1
05 22.08 З 2 15 км н/о +27.7 +23.7 79 +38 +38 очень
душно
1009.4 1001.7
06 22.08 С 1 16 км н/о +27.9 +24.3 81 +39 +39 очень
душно
1009.0 1001.3
07 22.08 СВ 1 18 км н/о +27.6 +23.4 78 +37 +37 очень
душно
1009.1 1001.4
08 22.08 ЮВ 2 19 км н/о +27.5 +23.1 77 +37 +37 очень
душно
1009.3 1001.6
09 22.08 штиль 0 16 км н/о +27.0 +23.9 83 +37 +37 очень
душно
1009.7 1001.9
11 22.08 Ю 1 12 км слаб. дождь н/о +26.0 +24.4 91 +36 +36 очень
душно
1010.1 1002.3
12 22.08 Ю 2 15 км в посл. час дождь н/о +26.3 +24.0 87 +36 +36 очень
душно
1010.1 1002.3 +29.0 0.0
13 22.08 ЮЗ 1 13 км н/о +25.6 +23.8 90 +35 +35 очень
душно
1009.9 1002.1
14 22.08 Ю 1 11 км н/о +25.4 +23.6 90 +35 +35 очень
душно
1009.3 1001.5
15 22.08 З 2 20 км н/о +26.2 +23.3 84 +35 +35 очень
душно
1008.6 1000.8
16 22.08 ЮЗ 5 20 км слаб. дождь н/о +26.8 +22.9 79 +36 +36 очень
душно
1008.1 1000.3
17 22.08 ЮЗ 3 20 км в посл. час дождь н/о +26.8 +23.5 82 +36 +36 очень
душно
1007.0 999.3
18 22.08 З 3 20 км слаб. дождь н/о +26.2 +23.9 87 +36 +36 очень
душно
1006.0 998.2 0.0
19 22.08 З 5 20 км в посл. час дождь н/о +27.0 +24.1 84 +37 +37 очень
душно
1005.6 997.9
20 22.08 ЮЗ 3 1900 м дождь н/о +25.7 +24.8 95 +36 +36 очень
душно
1005.5 997.7
21 22.08 ЮЗ 6 6000 м дождь н/о +25.8 +24.9 95 +37 +37 очень
душно
1005.5 997.7
22 22.08 ЮЗ 6 7000 м слаб. дождь н/о +26.4 +25.0 92 +38 +38 очень
душно
1005.6 997.9
23 22.08 З 5 20 км в посл. час дождь н/о +27.3 +25.0 87 +39 +39 очень
душно
1005.5 997.8
00 23.08 З 8 9000 м слаб. дождь н/о +26.6 +24.3 87 +37 +37 очень
душно
1005.4 997.7 +25.1 14
01 23.08 З 8 20 км слаб. дождь н/о +26.6 +24.1 86 +37 +37 очень
душно
1005.5 997.8
02 23.08 ЮЗ 3 20 км слаб. дождь н/о +27.5 +24.4 83 +39 +39 очень
душно
1005.2 997.5
03 23.08 В 2 20 км слаб. дождь н/о +28.3 +24.7 81 +40 +40 очень
душно
1005.1 997.4
04 23.08 З 6 19 км н/о +29.1 +24.4 76 +41 +41 опасность
перегрева
1005.1 997.4
05 23.08 З 6 20 км в посл. час дождь н/о +28.6 +24.2 77 +40 +40 очень
душно
1004.6 996.9
06 23.08 ЮЗ 5 20 км слаб. дождь н/о +26.2 +23.9 87 +36 +36 очень
душно
1005.4 997.7 2
07 23.08 СЗ 2 20 км слаб. дождь н/о +26.0 +23.9 88 +36 +36 очень
душно
1005.3 997.5
08 23.08 ЮЗ 3 20 км в посл. час дождь н/о +26.4 +23.3 83 +36 +36 очень
душно
1005.4 997.7
09 23.08 С 2 20 км в посл. час дождь н/о +25.4 +23.5 89 +34 +34 очень
душно
1005.6 997.8
11 23.08 СЗ 2 20 км н/о +25.8 +21.9 79 +33 +33 очень
душно
1006.3 998.5
13 23.08 З 4 20 км н/о +25.6 +20.4 73 +32 +32 очень
душно
1006.4 998.6
14 23.08 ЮВ 1 20 км н/о +25.5 +21.0 76 +32 +32 очень
душно
1006.6 998.8
15 23.08 В 2 20 км н/о +25.2 +20.9 77 +32 +32 очень
душно
1006.7 998.9
16 23.08 В 1 19 км н/о +25.1 +20.8 77 +31 +31 очень
душно
1006.8 999.0
17 23.08 ЮЗ 2 19 км в посл. час дождь н/о +25.2 +20.7 76 +31 +31 очень
душно
1007.1 999.3
18 23.08 С 2 17 км {дождь} н/о +24.7 +21.8 84 +32 +32 очень
душно
1007.1 999.3 0.0
19 23.08 З 2 19 км слаб. дождь н/о +25.4 +20.9 76 +32 +32 очень
душно
1007.5 999.7
20 23.08 З 4 19 км в посл. час дождь н/о +25.2 +21.1 78 +32 +32 очень
душно
1007.8 1000.0
21 23.08 ЮЗ 2 16 км слаб. дождь н/о +24.4 +22.1 87 +32 +32 очень
душно
1008.2 1000.4
22 23.08 ЮЗ 1 19 км в посл. час дождь н/о +25.1 +22.2 84 +33 +33 очень
душно
1008.5 1000.7
23 23.08 З 3 19 км в посл. час дождь н/о +25.2 +20.7 76 +31 +31 очень
душно
1008.5 1000.7
00 24.08 З 3 18 км в посл. час дождь н/о +26.0 +21.4 76 +33 +33 очень
душно
1009.1 1001.3 +24.3 0.0
02 24.08 З 5 18 км н/о +26.8 +20.6 69 +33 +33 очень
душно
1008.8 1001.0
03 24.08 З 6 18 км н/о +27.5 +20.8 67 +34 +34 очень
душно
1008.1 1000.4
04 24.08 З 4 16 км н/о +29.4 +21.9 64 +38 +38 очень
душно
1007.8 1000.1
05 24.08 ЮЗ 6 14 км н/о +29.2 +20.4 59 +36 +36 очень
душно
1007.3 999.6
06 24.08 З 10 16 км н/о +28.6 +20.9 63 +36 +36 очень
душно
1006.8 999.1
08 24.08 З 9 16 км н/о +27.0 +21.5 72 +34 +34 очень
душно
1007.1 999.4
09 24.08 ЮЗ 8 17 км н/о +26.4 +21.4 74 +34 +34 очень
душно
1007.4 999.6
10 24.08 З 8 17 км н/о +26.5 +21.7 75 +34 +34 очень
душно
1007.7 999.9
11 24.08 З 5 17 км н/о +26.5 +21.5 74 +34 +34 очень
душно
1008.3 1000.5
12 24.08 СЗ 3 15 км н/о +26.1 +21.8 77 +34 +34 очень
душно
1008.3 1000.5 +30.1
13 24.08 СЗ 2 16 км н/о +26.0 +21.7 77 +33 +33 очень
душно
1008.1 1000.3
14 24.08 З 3 15 км в посл. час дождь н/о +26.1 +21.5 76 +33 +33 очень
душно
1008.3 1000.5
15 24.08 З 1 14 км слаб. дождь н/о +25.6 +21.7 79 +33 +33 очень
душно
1008.1 1000.3
16 24.08 Ю 2 13 км слаб. дождь н/о +25.6 +22.1 81 +33 +33 очень
душно
1008.1 1000.3
18 24.08 С 1 11 км в посл. час дождь н/о +23.9 +22.2 90 +31 +31 очень
душно
1008.0 1000.2 0.0
19 24.08 В 1 12 км н/о +24.7 +22.6 88 +32 +32 очень
душно
1008.3 1000.5
20 24.08 штиль 0 9000 м дымка н/о +24.0 +22.8 93 +32 +32 очень
душно
1009.0 1001.2
21 24.08 ЮЗ 1 13 км н/о +23.7 +21.6 88 +30 +30 очень
душно
1009.8 1001.9
22 24.08 С 2 15 км н/о +24.2 +20.5 80 +30 +30 очень
душно
1010.2 1002.4
23 24.08 С 4 17 км н/о +25.0 +20.9 78 +31 +31 очень
душно
1010.2 1002.4
00 25.08 С 4 17 км н/о +25.9 +20.0 70 +32 +32 очень
душно
1010.7 1002.9 +23.6 0.0
01 25.08 С 2 19 км н/о +26.1 +19.3 66 +31 +31 очень
душно
1010.8 1003.0
02 25.08 СВ 2 16 км н/о +25.9 +19.6 68 +31 +31 очень
душно
1010.5 1002.7
03 25.08 СВ 2 14 км н/о +26.8 +21.1 71 +34 +34 очень
душно
1010.1 1002.3
04 25.08 В 2 15 км н/о +26.6 +19.0 63 +32 +32 очень
душно
1009.8 1002.0
05 25.08 Ю 2 15 км н/о +27.5 +19.8 63 +33 +33 очень
душно
1009.6 1001.9
07 25.08 Ю 3 8000 м дым н/о +27.9 +21.7 69 +36 +36 очень
душно
1009.7 1002.0
08 25.08 ЮЗ 1 16 км н/о +27.1 +21.8 73 +35 +35 очень
душно
1010.0 1002.2
09 25.08 ЮЗ 1 14 км н/о +25.0 +21.5 81 +32 +32 очень
душно
1009.9 1002.1
10 25.08 ЮЗ 2 14 км н/о +24.6 +21.1 81 +31 +31 очень
душно
1010.3 1002.5
11 25.08 Ю 1 13 км н/о +24.2 +21.3 84 +31 +31 очень
душно
1010.5 1002.7
12 25.08 З 1 13 км н/о +24.1 +21.2 84 +30 +30 очень
душно
1010.8 1003.0 +28.9
13 25.08 ЮЗ 1 13 км н/о +24.0 +21.1 84 +30 +30 очень
душно
1010.8 1002.9

 

Местоположение метеостанции Аджиро (Япония): широта 35.05 долгота 139.10 высота над уровнем моря 68 м.

В архиве по умолчанию представлена погода в Аджиро за последнюю неделю. Архивные данные за месяц целиком и за предыдущие месяцы, начиная с января 2011 года, Вы можете получить, выбрав интересующий диапазон дат из раскрывающегося списка и нажав кнопку "Ввод!".


*Определитесь, кто Вы:
робот инопланетянин человек

Внимание! Время в таблицах - всемирное. Для получения местного времени необходимо прибавить поправку, которая равна 9 ч.

Смотрите также архив погоды в соседних городах и на ближайших метеорологических станциях:

Погода в Мисиме (Япония) (17 км)
Погода на Осиме (Япония) (42 км)
Погода на Фудзияме (Япония) (49 км)
Погода в Иродзаки (Япония) (55 км)
Погода на Озере Кавагучи (Япония) (59 км)
Погода в Сидзуоке (Япония) (64 км)
Погода в Иокогаме (Япония) (65 км)
Погода в Татеяме (Япония) (70 км)
Погода в Кофу (Япония) (85 км)
Погода в Токио (Япония) (92 км)

Пояснения к столбцам:

Ветер - указаны скорость ветра в м/с - средняя за 10 мин, порывы в срок и между сроками (в фигурных скобках) и направление, откуда дует ветер: С - северный, СВ - северо-восточный, В - восточный, ЮВ - юго-восточный, Ю - южный, ЮЗ - юго-западный, З - западный, СЗ - северо-западный.
Видимость - горизонтальная дальность видимости в метрах или километрах. При видимости от 1 до 10 км при отсутствии осадков обычно наблюдается дымка, при ухудшении видимости до 1 км и менее - туман. В сухую погоду видимость может ухудшаться дымом, пылью или мглою.
Явления - указаны атмосферные явления, наблюдавшиеся в срок или в последний час перед сроком; фигурными скобками обозначены явления, наблюдавшиеся между сроками (за 1-3 часа до срока); квадратными скобками обозначены град или гололедные отложения с указанием их диаметра в мм.
Облачность - указаны через наклонную черту общая и нижняя облачность в баллах и высота нижней границы облаков в метрах; квадратными скобками обозначены формы облаков: Ci - перистые, Cs - перисто-слоистые, Cc - перисто-кучевые, Ac - высококучевые, As - высокослоистые, Sc - слоисто-кучевые, Ns - слоисто-дождевые, Cu - кучевые, Cb - кучево-дождевые. Подробнее классификацию облаков см. в Атласе облаков (PDF).
T - Температура воздуха - температура, измеренная на высоте 2 м над землей.
Td - Температура точки росы - температура, при понижении до которой содержащийся в воздухе водяной пар достигнет насыщения.
f - Относительная влажность воздуха - влажноcть воздуха, измеренная на высоте 2 м над землей.
Te - Эффективная температура - температура, которую ощущает одетый по сезону человек в тени. Характеристика душности погоды. При расчете учитывается влияние влажности воздуха и скорости ветра на теплоощущения человека.
Tes - Эффективная температура на солнце - температура, которую ощущает человек, с поправкой на солнечный нагрев. Характеристика знойности погоды. Зависит от высоты солнца над горизонтом, облачности и скорости ветра. Ночью, в пасмурную погоду, а также при ветре 12 м/с и более поправка равна нулю.
P - Атмосферное давление - приведенное к уровню моря атмосферное давление.
Po - Атмосферное давление - измеренное на уровне метеостанции атмосферное давление.
Tmin - Минимальная температура - минимум температуры воздуха на высоте 2 м над землей.
Tmax - Максимальная температура - максимум температуры воздуха на высоте 2 м над землей.
R - Количество осадков - Количество выпавших осадков за период времени, мм. При наведении курсора мыши на число - период времени, за который выпало указанное количество осадков.
R24 - Количество осадков - Количество выпавших осадков за 24 часа, мм.
S - Снежный покров - Высота снежного покрова, см. При наведении курсора мыши на число - состояние снежного покрова и степень покрытия местности в баллах.